Regional Weather Roundup
Issued by NWS Upton, NY

Current Version | Previous Version | Text Only | Print | Product List | Glossary On
Versions: 1 2 3 4 5 6 7 8 9 10 11 12 13 14 15 16 17 18 19 20 21 22 23 24 25 26 27 28 29 30 31 32 33 34 35 36 37 38 39 40 41 42 43 44 45 46 47 48 49 50
227
ASUS41 KOKX 290505
RWROKX

REGIONAL WEATHER ROUNDUP
NATIONAL WEATHER SERVICE NEW YORK NY
100 AM EDT FRI JUL 29 2016

NOTE: "FAIR" INDICATES FEW OR NO CLOUDS BELOW 12,000 FEET WITH NO
SIGNIFICANT WEATHER AND/OR OBSTRUCTIONS TO VISIBILITY.

NYZ071-072-176-178-NJZ106-104-290600-
NEW YORK CITY METRO AREA

CITY           SKY/WX    TMP DP  RH WIND       PRES   REMARKS
Central Park   LGT RAIN  76  71  85 CALM      29.89F
LaGuardia APRT LGT RAIN  80  71  74 NE3       29.86S
Kennedy INTL   CLOUDY    80  70  71 N6        29.87F
Newark/Liberty LGT RAIN  77  72  84 NE6       29.86F
Bronx Bot Gard   N/A     75  70  83 E3        29.88F
Wall St Helipt CLOUDY    79  72  78 NE3       29.87S
Teterboro      LGT RAIN  78  71  79 N5        29.85F
$$

NYZ177-179-078>081-290600-
LONG ISLAND NEW YORK

CITY           SKY/WX    TMP DP  RH WIND       PRES   REMARKS
Farmingdale    CLOUDY    78  69  73 N6        29.87S
MacArthur/ISP  CLOUDY    78  69  73 NW5       29.87S
Shirley        CLOUDY    75  71  87 N3        29.88S
Riverhead      NOT AVBL
Westhampton    CLOUDY    76  74  93 CALM      29.89S FOG
Southhampton     N/A     75  75 100 CALM      29.84S
Bridgehampton    N/A     75  73  94 CALM      29.87S
East Hampton   CLOUDY    75  74  97 CALM      29.88R FOG
Montauk          N/A     75  75 100 CALM      29.89S
$$

NYZ052-065-067-290600-
HUDSON VALLEY

CITY           SKY/WX    TMP DP  RH WIND       PRES   REMARKS
White Plains   CLOUDY    76  71  85 NW8       29.88S
Newburgh       DRIZZLE   73  72  94 CALM      29.90F
Montgomery     CLOUDY    72  70  93 CALM      29.88F FOG
Poughkeepsie   MOCLDY    75  71  87 CALM      29.87F
Albany         CLOUDY    72  65  78 NE3       29.89S
$$

NJZ001-105-106-008-010-013-015-019>022-104-290600-
NEW JERSEY

CITY           SKY/WX    TMP DP  RH WIND       PRES   REMARKS
Newark/Liberty LGT RAIN  77  72  84 NE6       29.86F
Teterboro      LGT RAIN  78  71  79 N5        29.85F
Caldwell       LGT RAIN  75  73  93 CALM      29.87F
Morristown     RAIN      73  70  88 CALM      29.87S
Somerville     LGT RAIN  75  72  90 NW3       29.86R FOG
Linden         RAIN      77  72  84 CALM      29.88F
Sussex         LGT RAIN  72  72 100 CALM      29.88F FOG
Abdover          N/A     73  71  93 CALM      29.90R
Trenton        CLOUDY    74  72  93 N3        29.87R FOG
Millville      LGT RAIN  74  72  93 E7        29.86R FOG
Atlantic City  CLOUDY    74  72  93 CALM      29.86F
Wrightstown    NOT AVBL
Toms River     LGT RAIN  73  72  96 CALM      29.88R
Belmar         LGT RAIN  74  71  91 CALM      29.88S
$$

PAZ047>061-062-071-290600-
EASTERN PENNSYLVANIA

CITY           SKY/WX    TMP DP  RH WIND       PRES   REMARKS
Philadelphia   CLOUDY    75  72  90 VRB6      29.86S
Allentown      CLOUDY    74  71  91 CALM      29.89R FOG
Scranton       MOCLDY    72  69  90 CALM      29.90F
$$

CTZ002-004>006-009-010-012-RIZ004-006-007-MAZ004-011-015-290600-
SOUTHERN NEW ENGLAND
 IN CT

CITY           SKY/WX    TMP DP  RH WIND       PRES   REMARKS
Bradley INTL   LGT RAIN  79  68  69 SW6       29.87S
Hartford       MOCLDY    80  73  79 CALM      29.86S
Danbury        CLOUDY    73  70  90 CALM      29.90F
Wtrbury/Oxford   N/A     73  64  73 NW6       29.93S
Bridgeport     MOCLDY    80  70  71 NW5       29.86S
Meriden        CLOUDY    77  70  79 CALM      29.88R
New Haven      MOCLDY    79  70  74 VRB5      29.87S
Chester        FAIR      75  73  94 CALM      29.89S
Groton         CLOUDY    77  73  87 CALM      29.87S
Wilimantic     CLOUDY    78  73  84 S3        29.88F

 IN RI

CITY           SKY/WX    TMP DP  RH WIND       PRES   REMARKS
Providence     CLOUDY    76  73  91 S6        29.88F
Block Island   CLOUDY    76  75  97 SW7       29.89R FOG
Westerly       FOG       75  72  90 CALM      29.88F VSB 1/2
 IN MA

CITY           SKY/WX    TMP DP  RH WIND       PRES   REMARKS
Boston         NOT AVBL
Worchester     MOCLDY    73  68  84 W7        29.90F
Westfield      CLOUDY    77  67  71 NW5       29.86F
Provincetown   MOCLDY    73  72  96 S8        29.88S
Nantucket      CLOUDY    70  68  93 SE5       29.89S
$$

ANZ330-335-338-340-345-350-353-355-290600-
COASTAL MARINE OBSERVATIONS


STATION/POSITION TIME  SKY/WX   TEMP    WIND        PRES    VSBY  WAVE
                                AIR SEA DIR/SP/G                  HT/PER
                 (UTC)          (F)     (DEG/KT/KT) (MB)    (MI)  (FT/S)
NY HARB ENTRANCE 0350            74 74  310/  4/  6 1011.1          1/ 8
20S FIRE ISLAND  0350            77 78  350/  6/  8 1010.8          1/ 6
GREAT SOUTH BAY  0400            80 83  350/  6/  8   N/A
23 SSW MONTAUK P 0350            75 74  180/  2/  4 1012.1          1/ 7
15 E BARNEGAT LI 0400               79                N/A           1/ 8
HUDSON CANYON    0350            80 80              1010.9          1/ 6
KINGS POINT      0400            77 74              1011.4
EXECUTION ROCKS  NOT AVBL
CENTRAL LI SOUND NOT AVBL
EASTERN LI SOUND NOT AVBL
ROBBINS REEF     0400            78     340/  6/  8 1010.8
$$


>>>>>>>>>>>>>>>>>>>>>>>>>>>> KEY <<<<<<<<<<<<<<<<<<<<<<<<<<<
>                                                          <
>     SKY/WX - Sky Condition/Present Weather               <
>     TMP    - Temperature in Fahrenheit                   <
>     DP     - Dew Point in Fahrenheit                     <
>     RH     - Relative Humidity in Percent                <
>     WIND   - Direction (from) and Speed in MPH           <
>     PRES   - Mean Sea Level Pressure (inches of Hg)      <
>     WCI    - Wind Chill Index                            <
>     VSB    - VISIBILITY IN MILES                         <
>     HX     - HEAT INDEX                                  <
>     TC     - TEMPERATURE IN CELSIUS                      <
>     VRB    - VARIABLE WIND DIRECTION                     <
>                                                          <
>>>>>>>>>>>>>>>>>>>>>>>>>>>> KEY <<<<<<<<<<<<<<<<<<<<<<<<<<<




USA.gov is the U.S. government's official web portal to all federal, state and local government web resources and services.